Time,TemperatureF,DewpointF,PressureIn,WindDirection,WindDirectionDegrees,WindSpeedMPH,WindSpeedGustMPH,Humidity,HourlyPrecipIn,Conditions,Clouds,dailyrainin,SoftwareType,DateUTC
2013-04-03 00:01:00,47.0,47.0,30.23,North,0,0.0,0.0,100,0.00,,,0.02,,2013-04-03 07:01:00,
2013-04-03 00:11:00,47.0,47.0,30.23,North,0,0.0,0.0,100,0.00,,,0.02,,2013-04-03 07:11:00,
2013-04-03 00:22:00,47.0,47.0,30.23,North,0,0.0,0.0,100,0.00,,,0.02,,2013-04-03 07:22:00,
2013-04-03 00:31:00,47.0,47.0,30.24,North,0,0.0,0.0,100,0.00,,,0.02,,2013-04-03 07:31:00,
2013-04-03 00:42:00,47.0,47.0,30.24,North,0,0.0,0.0,100,0.00,,,0.02,,2013-04-03 07:42:00,
2013-04-03 00:53:00,47.0,47.0,30.23,North,0,0.0,0.0,100,0.00,,,0.02,,2013-04-03 07:53:00,
2013-04-03 01:02:00,47.0,47.0,30.23,North,0,0.0,0.0,100,0.00,,,0.02,,2013-04-03 08:02:00,
2013-04-03 01:11:00,47.0,47.0,30.23,North,0,0.0,0.0,100,0.00,,,0.02,,2013-04-03 08:11:00,
2013-04-03 01:21:00,46.0,46.0,30.22,North,0,0.0,0.0,100,0.00,,,0.02,,2013-04-03 08:21:00,
2013-04-03 01:31:00,46.0,46.0,30.22,North,0,0.0,0.0,100,0.00,,,0.01,,2013-04-03 08:31:00,
2013-04-03 01:41:00,46.0,46.0,30.22,North,0,0.0,0.0,100,0.00,,,0.01,,2013-04-03 08:41:00,
2013-04-03 01:51:00,46.0,46.0,30.22,North,0,0.0,0.0,100,0.00,,,0.01,,2013-04-03 08:51:00,
2013-04-03 02:02:00,46.0,46.0,30.22,North,0,0.0,0.0,100,0.00,,,0.01,,2013-04-03 09:02:00,
2013-04-03 02:11:00,46.0,46.0,30.22,North,0,0.0,0.0,100,0.00,,,0.01,,2013-04-03 09:11:00,
2013-04-03 02:21:00,46.0,46.0,30.22,North,0,0.0,0.0,100,0.00,,,0.01,,2013-04-03 09:21:00,
2013-04-03 02:32:00,46.0,46.0,30.21,North,0,0.0,0.0,100,0.00,,,0.01,,2013-04-03 09:32:00,
2013-04-03 02:42:00,46.0,46.0,30.21,North,0,0.0,0.0,100,0.00,,,0.01,,2013-04-03 09:42:00,
2013-04-03 02:52:00,46.0,46.0,30.20,North,0,0.0,0.0,100,0.00,,,0.01,,2013-04-03 09:52:00,
2013-04-03 03:02:00,45.0,45.0,30.20,North,0,0.0,0.0,100,0.00,,,0.01,,2013-04-03 10:02:00,
2013-04-03 03:12:00,45.0,45.0,30.20,North,0,0.0,0.0,100,0.00,,,0.01,,2013-04-03 10:12:00,
2013-04-03 03:22:00,45.0,45.0,30.21,North,0,0.0,0.0,100,0.00,,,0.01,,2013-04-03 10:22:00,
2013-04-03 03:32:00,45.0,45.0,30.21,North,0,0.0,0.0,100,0.00,,,0.01,,2013-04-03 10:32:00,
2013-04-03 03:42:00,45.0,45.0,30.21,North,0,0.0,0.0,100,0.00,,,0.01,,2013-04-03 10:42:00,
2013-04-03 03:52:00,45.0,45.0,30.20,North,0,0.0,0.0,100,0.00,,,0.01,,2013-04-03 10:52:00,
2013-04-03 04:02:00,45.0,45.0,30.20,North,0,0.0,0.0,100,0.00,,,0.01,,2013-04-03 11:02:00,
2013-04-03 04:12:00,45.0,45.0,30.20,North,0,0.0,0.0,100,0.00,,,0.01,,2013-04-03 11:12:00,
2013-04-03 04:22:00,45.0,45.0,30.20,North,0,0.0,0.0,100,0.00,,,0.01,,2013-04-03 11:22:00,
2013-04-03 04:32:00,45.0,45.0,30.19,North,0,0.0,0.0,100,0.00,,,0.01,,2013-04-03 11:32:00,
2013-04-03 04:41:00,45.0,45.0,30.19,North,0,0.0,0.0,100,0.00,,,0.01,,2013-04-03 11:41:00,
2013-04-03 04:52:00,45.0,45.0,30.19,North,0,0.0,0.0,100,0.00,,,0.01,,2013-04-03 11:52:00,
2013-04-03 05:01:00,45.0,45.0,30.19,North,0,0.0,0.0,100,0.00,,,0.01,,2013-04-03 12:01:00,
2013-04-03 05:11:00,45.0,45.0,30.19,North,0,0.0,0.0,100,0.00,,,0.01,,2013-04-03 12:11:00,
2013-04-03 05:22:00,45.0,45.0,30.19,North,0,0.0,0.0,100,0.00,,,0.01,,2013-04-03 12:22:00,
2013-04-03 05:32:00,45.0,45.0,30.18,North,0,0.0,0.0,100,0.00,,,0.00,,2013-04-03 12:32:00,
2013-04-03 05:41:00,45.0,45.0,30.18,North,0,0.0,0.0,100,0.00,,,0.00,,2013-04-03 12:41:00,
2013-04-03 05:52:00,45.0,45.0,30.19,North,0,0.0,0.0,100,0.00,,,0.00,,2013-04-03 12:52:00,
2013-04-03 06:01:00,44.0,44.0,30.19,North,0,0.0,8.0,100,0.00,,,0.00,,2013-04-03 13:01:00,
2013-04-03 06:12:00,44.0,44.0,30.19,North,0,0.0,8.0,100,0.00,,,0.00,,2013-04-03 13:12:00,
2013-04-03 06:21:00,44.0,44.0,30.18,North,0,0.0,0.0,100,0.00,,,0.00,,2013-04-03 13:21:00,
2013-04-03 06:31:00,45.0,45.0,30.16,North,0,0.0,0.0,100,0.00,,,0.00,,2013-04-03 13:31:00,
2013-04-03 06:41:00,45.0,45.0,30.16,North,0,0.0,0.0,100,0.00,,,0.00,,2013-04-03 13:41:00,
2013-04-03 06:52:00,45.0,45.0,30.16,North,0,0.0,0.0,100,0.00,,,0.00,,2013-04-03 13:52:00,
2013-04-03 07:01:00,44.0,44.0,30.15,North,0,0.0,0.0,100,0.00,,,0.00,,2013-04-03 14:01:00,
2013-04-03 07:11:00,44.0,44.0,30.15,North,0,0.0,0.0,100,0.00,,,0.00,,2013-04-03 14:11:00,
2013-04-03 07:21:00,44.0,44.0,30.15,North,0,0.0,0.0,100,0.00,,,0.00,,2013-04-03 14:21:00,
2013-04-03 07:31:00,44.0,44.0,30.15,North,0,0.0,0.0,100,0.00,,,0.00,,2013-04-03 14:31:00,
2013-04-03 07:42:00,44.0,44.0,30.15,North,0,0.0,0.0,100,0.00,,,0.00,,2013-04-03 14:42:00,
2013-04-03 07:52:00,44.0,44.0,30.15,North,0,0.0,0.0,100,0.00,,,0.00,,2013-04-03 14:52:00,
2013-04-03 08:01:00,44.0,44.0,30.15,North,0,0.0,0.0,100,0.00,,,0.00,,2013-04-03 15:01:00,
2013-04-03 08:11:00,44.0,44.0,30.15,North,0,0.0,0.0,100,0.00,,,0.00,,2013-04-03 15:11:00,
2013-04-03 08:22:00,44.0,44.0,30.14,North,0,0.0,0.0,100,0.00,,,0.00,,2013-04-03 15:22:00,
2013-04-03 08:32:00,44.0,44.0,30.15,North,0,0.0,0.0,100,0.00,,,0.00,,2013-04-03 15:32:00,
2013-04-03 08:42:00,44.0,44.0,30.15,North,0,0.0,0.0,100,0.00,,,0.00,,2013-04-03 15:42:00,
2013-04-03 08:53:00,44.0,44.0,30.16,North,0,0.0,6.0,100,0.00,,,0.00,,2013-04-03 15:53:00,
2013-04-03 09:02:00,45.0,45.0,30.16,North,0,0.0,0.0,100,0.00,,,0.00,,2013-04-03 16:02:00,
2013-04-03 09:12:00,45.0,45.0,30.16,North,0,0.0,0.0,100,0.00,,,0.00,,2013-04-03 16:12:00,
2013-04-03 09:22:00,45.0,45.0,30.15,North,0,0.0,0.0,100,0.00,,,0.00,,2013-04-03 16:22:00,
2013-04-03 09:32:00,46.0,46.0,30.15,North,0,0.0,0.0,100,0.00,,,0.00,,2013-04-03 16:32:00,
2013-04-03 09:42:00,46.0,46.0,30.15,North,0,0.0,0.0,100,0.00,,,0.00,,2013-04-03 16:42:00,
2013-04-03 09:52:00,46.0,46.0,30.15,North,0,0.0,0.0,100,0.00,,,0.00,,2013-04-03 16:52:00,
2013-04-03 10:02:00,46.0,46.0,30.14,North,0,0.0,0.0,100,0.00,,,0.00,,2013-04-03 17:02:00,
2013-04-03 10:12:00,46.0,46.0,30.14,North,0,0.0,0.0,100,0.00,,,0.00,,2013-04-03 17:12:00,
2013-04-03 10:22:00,47.0,47.0,30.14,North,0,0.0,0.0,100,0.00,,,0.00,,2013-04-03 17:22:00,
2013-04-03 10:32:00,46.0,46.0,30.14,North,357,0.0,9.0,100,0.00,,,0.00,,2013-04-03 17:32:00,
2013-04-03 10:45:00,46.0,46.0,30.14,North,357,0.0,9.0,100,0.00,,,0.00,,2013-04-03 17:45:00,
2013-04-03 10:53:00,46.0,46.0,30.15,NE,35,1.0,9.0,100,0.00,,,0.00,,2013-04-03 17:53:00,
2013-04-03 11:02:00,46.0,46.0,30.14,NW,305,0.0,6.0,100,0.00,,,0.00,,2013-04-03 18:02:00,
2013-04-03 11:12:00,46.0,46.0,30.14,NW,305,0.0,6.0,100,0.00,,,0.00,,2013-04-03 18:12:00,
2013-04-03 11:21:00,46.0,46.0,30.14,North,0,0.0,4.0,100,0.00,,,0.00,,2013-04-03 18:21:00,
2013-04-03 11:32:00,47.0,47.0,30.15,North,357,1.0,4.0,100,0.00,,,0.00,,2013-04-03 18:32:00,
2013-04-03 11:42:00,47.0,47.0,30.15,North,357,1.0,4.0,100,0.00,,,0.00,,2013-04-03 18:42:00,
2013-04-03 11:52:00,47.0,47.0,30.15,NW,312,0.0,5.0,100,0.00,,,0.00,,2013-04-03 18:52:00,
2013-04-03 12:01:00,47.0,47.0,30.15,West,268,0.0,6.0,100,0.00,,,0.00,,2013-04-03 19:01:00,
2013-04-03 12:11:00,47.0,47.0,30.15,West,268,0.0,6.0,100,0.00,,,0.00,,2013-04-03 19:11:00,
2013-04-03 12:21:00,47.0,47.0,30.16,North,357,0.0,7.0,100,0.00,,,0.00,,2013-04-03 19:21:00,
2013-04-03 12:31:00,47.0,47.0,30.15,North,0,0.0,8.0,100,0.00,,,0.00,,2013-04-03 19:31:00,
2013-04-03 12:42:00,47.0,47.0,30.15,North,0,0.0,8.0,100,0.00,,,0.00,,2013-04-03 19:42:00,
2013-04-03 12:52:00,47.0,47.0,30.14,North,0,0.0,1.0,100,0.00,,,0.00,,2013-04-03 19:52:00,
2013-04-03 13:02:00,48.0,48.0,30.13,WNW,292,2.0,7.0,100,0.00,,,0.00,,2013-04-03 20:02:00,
2013-04-03 13:12:00,48.0,48.0,30.13,WNW,292,2.0,7.0,100,0.00,,,0.00,,2013-04-03 20:12:00,
2013-04-03 13:22:00,48.0,48.0,30.13,NW,316,0.0,7.0,100,0.00,,,0.00,,2013-04-03 20:22:00,
2013-04-03 13:31:00,47.0,47.0,30.12,North,357,0.0,1.0,100,0.00,,,0.00,,2013-04-03 20:31:00,
2013-04-03 13:42:00,47.0,47.0,30.12,North,357,0.0,1.0,100,0.00,,,0.00,,2013-04-03 20:42:00,
2013-04-03 13:52:00,47.0,47.0,30.12,North,0,0.0,1.0,100,0.00,,,0.00,,2013-04-03 20:52:00,
2013-04-03 14:02:00,48.0,48.0,30.12,North,0,0.0,0.0,100,0.00,,,0.00,,2013-04-03 21:02:00,
2013-04-03 14:12:00,48.0,48.0,30.12,North,0,0.0,0.0,100,0.00,,,0.00,,2013-04-03 21:12:00,
2013-04-03 14:22:00,48.0,48.0,30.12,North,0,0.0,0.0,100,0.00,,,0.00,,2013-04-03 21:22:00,
2013-04-03 14:32:00,48.0,48.0,30.11,North,0,0.0,0.0,100,0.00,,,0.00,,2013-04-03 21:32:00,
2013-04-03 14:42:00,48.0,48.0,30.11,North,0,0.0,0.0,100,0.00,,,0.00,,2013-04-03 21:42:00,
2013-04-03 14:52:00,48.0,48.0,30.10,North,0,0.0,0.0,100,0.00,,,0.00,,2013-04-03 21:52:00,
2013-04-03 15:02:00,48.0,48.0,30.10,North,0,0.0,0.0,100,0.00,,,0.00,,2013-04-03 22:02:00,
2013-04-03 15:12:00,48.0,48.0,30.10,North,0,0.0,0.0,100,0.00,,,0.00,,2013-04-03 22:12:00,
2013-04-03 15:22:00,49.0,49.0,30.10,North,0,0.0,0.0,100,0.00,,,0.00,,2013-04-03 22:22:00,
2013-04-03 15:32:00,49.0,49.0,30.10,North,0,0.0,0.0,100,0.00,,,0.00,,2013-04-03 22:32:00,
2013-04-03 15:42:00,49.0,49.0,30.10,North,0,0.0,0.0,100,0.00,,,0.00,,2013-04-03 22:42:00,
2013-04-03 15:52:00,50.0,50.0,30.09,North,0,0.0,0.0,100,0.00,,,0.00,,2013-04-03 22:52:00,
2013-04-03 16:01:00,50.0,50.0,30.08,North,355,0.0,5.0,100,0.00,,,0.00,,2013-04-03 23:01:00,
2013-04-03 16:11:00,50.0,50.0,30.08,North,355,0.0,5.0,100,0.00,,,0.00,,2013-04-03 23:11:00,
2013-04-03 16:21:00,51.0,51.0,30.07,North,0,0.0,0.0,100,0.00,,,0.00,,2013-04-03 23:21:00,
2013-04-03 16:32:00,50.0,50.0,30.07,North,0,0.0,6.0,100,0.00,,,0.00,,2013-04-03 23:32:00,
2013-04-03 16:42:00,50.0,50.0,30.07,North,0,0.0,6.0,100,0.00,,,0.00,,2013-04-03 23:42:00,
2013-04-03 16:54:00,50.0,50.0,30.07,North,0,0.0,0.0,100,0.00,,,0.00,,2013-04-03 23:54:00,
2013-04-03 17:02:00,50.0,50.0,30.06,North,0,0.0,3.0,100,0.00,,,0.00,,2013-04-04 00:02:00,
2013-04-03 17:11:00,50.0,50.0,30.06,North,0,0.0,3.0,100,0.00,,,0.00,,2013-04-04 00:11:00,
2013-04-03 17:22:00,50.0,50.0,30.06,North,0,0.0,0.0,100,0.00,,,0.00,,2013-04-04 00:22:00,
2013-04-03 17:32:00,50.0,50.0,30.05,North,357,0.0,2.0,100,0.00,,,0.00,,2013-04-04 00:32:00,
2013-04-03 17:42:00,50.0,50.0,30.05,North,357,0.0,2.0,100,0.00,,,0.00,,2013-04-04 00:42:00,
2013-04-03 17:52:00,49.0,49.0,30.04,North,0,0.0,5.0,100,0.00,,,0.00,,2013-04-04 00:52:00,
2013-04-03 18:02:00,49.0,49.0,30.04,North,0,0.0,0.0,100,0.00,,,0.00,,2013-04-04 01:02:00,
2013-04-03 18:11:00,49.0,49.0,30.04,North,0,0.0,0.0,100,0.00,,,0.00,,2013-04-04 01:11:00,
2013-04-03 18:22:00,49.0,49.0,30.03,North,0,0.0,0.0,100,0.00,,,0.00,,2013-04-04 01:22:00,
2013-04-03 18:31:00,49.0,49.0,30.03,North,0,0.0,0.0,100,0.00,,,0.00,,2013-04-04 01:31:00,
2013-04-03 18:42:00,49.0,49.0,30.03,North,0,0.0,0.0,100,0.00,,,0.00,,2013-04-04 01:42:00,
2013-04-03 18:52:00,49.0,49.0,30.02,North,0,0.0,0.0,100,0.00,,,0.00,,2013-04-04 01:52:00,
2013-04-03 19:01:00,50.0,50.0,30.02,North,0,0.0,0.0,100,0.00,,,0.00,,2013-04-04 02:01:00,
2013-04-03 19:11:00,50.0,50.0,30.02,North,0,0.0,0.0,100,0.00,,,0.00,,2013-04-04 02:11:00,
2013-04-03 19:22:00,50.0,50.0,30.01,North,0,0.0,0.0,100,0.00,,,0.00,,2013-04-04 02:22:00,
2013-04-03 19:31:00,49.0,49.0,30.01,North,0,0.0,0.0,100,0.00,,,0.00,,2013-04-04 02:31:00,
2013-04-03 19:41:00,49.0,49.0,30.01,North,0,0.0,0.0,100,0.00,,,0.00,,2013-04-04 02:41:00,
2013-04-03 19:52:00,49.0,49.0,30.01,North,0,0.0,0.0,100,0.00,,,0.00,,2013-04-04 02:52:00,
2013-04-03 20:01:00,49.0,49.0,30.01,North,0,0.0,0.0,100,0.00,,,0.00,,2013-04-04 03:01:00,
2013-04-03 20:11:00,49.0,49.0,30.01,North,0,0.0,0.0,100,0.00,,,0.00,,2013-04-04 03:11:00,
2013-04-03 20:22:00,49.0,49.0,30.01,North,0,0.0,0.0,100,0.00,,,0.00,,2013-04-04 03:22:00,
2013-04-03 20:32:00,49.0,49.0,30.00,North,0,0.0,0.0,100,0.00,,,0.00,,2013-04-04 03:32:00,
2013-04-03 20:43:00,49.0,49.0,30.00,North,0,0.0,0.0,100,0.00,,,0.00,,2013-04-04 03:43:00,
2013-04-03 20:53:00,49.0,49.0,30.00,North,0,0.0,0.0,100,0.00,,,0.00,,2013-04-04 03:53:00,
2013-04-03 21:02:00,49.0,49.0,30.00,North,0,0.0,0.0,100,0.00,,,0.00,,2013-04-04 04:02:00,
2013-04-03 21:12:00,49.0,49.0,30.00,North,0,0.0,0.0,100,0.00,,,0.00,,2013-04-04 04:12:00,
2013-04-03 21:22:00,49.0,49.0,30.00,North,0,0.0,0.0,100,0.00,,,0.00,,2013-04-04 04:22:00,
2013-04-03 21:32:00,49.0,49.0,29.99,North,0,0.0,0.0,100,0.00,,,0.00,,2013-04-04 04:32:00,
2013-04-03 21:42:00,49.0,49.0,29.99,North,0,0.0,0.0,100,0.00,,,0.00,,2013-04-04 04:42:00,
2013-04-03 21:52:00,49.0,49.0,29.99,North,0,0.0,0.0,100,0.00,,,0.00,,2013-04-04 04:52:00,
2013-04-03 22:02:00,49.0,49.0,29.99,North,0,0.0,0.0,100,0.00,,,0.00,,2013-04-04 05:02:00,
2013-04-03 22:12:00,49.0,49.0,29.99,North,0,0.0,0.0,100,0.00,,,0.00,,2013-04-04 05:12:00,
2013-04-03 22:22:00,49.0,49.0,29.98,North,0,0.0,0.0,100,0.00,,,0.00,,2013-04-04 05:22:00,
2013-04-03 22:32:00,49.0,49.0,29.98,North,0,0.0,0.0,100,0.00,,,0.00,,2013-04-04 05:32:00,
2013-04-03 22:42:00,49.0,49.0,29.98,North,0,0.0,0.0,100,0.00,,,0.00,,2013-04-04 05:42:00,
2013-04-03 22:52:00,49.0,49.0,29.97,North,0,0.0,0.0,100,0.00,,,0.00,,2013-04-04 05:52:00,
2013-04-03 23:02:00,48.0,48.0,29.97,North,0,0.0,0.0,100,0.00,,,0.00,,2013-04-04 06:02:00,
2013-04-03 23:11:00,48.0,48.0,29.97,North,0,0.0,0.0,100,0.00,,,0.00,,2013-04-04 06:11:00,
2013-04-03 23:21:00,48.0,48.0,29.97,North,0,0.0,0.0,100,0.00,,,0.00,,2013-04-04 06:21:00,
2013-04-03 23:32:00,48.0,48.0,29.97,North,0,0.0,0.0,100,0.00,,,0.00,,2013-04-04 06:32:00,
2013-04-03 23:42:00,48.0,48.0,29.97,North,0,0.0,0.0,100,0.00,,,0.00,,2013-04-04 06:42:00,
2013-04-03 23:52:00,48.0,48.0,29.96,North,0,0.0,0.0,100,0.00,,,0.00,,2013-04-04 06:52:00,